Regional Weather Roundup
Issued by NWS Bismarck, ND

Home | Current Version | Previous Version | Text Only | Print | Product List | Glossary On
Versions: 1 2 3 4 5 6 7 8 9 10 11 12 13 14 15 16 17 18 19 20 21 22 23 24 25 26 27 28 29 30 31 32 33 34 35 36 37 38 39 40 41 42 43 44 45 46 47 48 49 50
000
ASUS43 KBIS 281210
RWRBIS

NWR BROADCAST TEXT
NATIONAL WEATHER SERVICE BISMARCK ND
600 AM CST FRI NOV 28 2014

NOTE: "FAIR" INDICATES FEW OR NO CLOUDS BELOW 12,000 FEET WITH NO
SIGNIFICANT WEATHER AND/OR OBSTRUCTIONS TO VISIBILITY.


CITY           SKY/WX    TMP DP  RH WIND       PRES   REMARKS
WILLISTON      CLOUDY    17  13  84 E9        29.72F WCI   6
MINOT          CLOUDY     8   4  83 E12       29.82F WCI  -7
MINOT AFB      CLOUDY     8   5  88 E17       29.81F WCI -10
BISMARCK       CLOUDY    10   7  87 E13       29.79F WCI  -5
DICKINSON      CLOUDY    19  16  88 E6        29.64F WCI  11
GARRISON         N/A     11   8  88 E10       29.78R WCI  -3
HETTINGER ARPT CLOUDY    32  26  78 N6        29.67S
JAMESTOWN      CLOUDY     7   3  84 E12       29.87F WCI  -8
BEACH          FAIR      28  28 100 SE7       29.63F
CARRINGTON     CLOUDY     7   5  92 SE13      29.87F WCI  -9
CROSBY         CLOUDY     9   7  92 E18       29.79R WCI -10
HARVEY         CLOUDY     7   5  92 SE14      29.86F WCI -10
HAZEN          CLOUDY    14   9  79 SE7       29.77F WCI   4
LINTON         CLOUDY    14  12  92 E9        29.78F WCI   2
MANDAN         CLOUDY     9   7  92 E10       29.77F WCI  -6
OAKES            N/A      7   3  85 E15       29.89F WCI -11
RUGBY          CLOUDY     9   5  85 E14       29.87F WCI  -8
STANLEY        FLURRIES   9   9 100 E12       29.76R WCI  -6
TIOGA          CLOUDY    10  10 100 E13       29.77S WCI  -5
$$

CITY           SKY/WX    TMP DP  RH WIND       PRES   REMARKS
GRAND FORKS    CLOUDY    12   6  77 SE7       30.00F WCI   1
GRAND FORKS AF CLOUDY    10   7  85 SE8       30.00S WCI  -1
DEVILS LAKE    CLOUDY     9  -2  61 E8        29.90S WCI  -4
FARGO          CLOUDY    13   5  70 SE9       29.99F WCI   1
CANDO          LGT SNOW   9   5  85 E10       29.92F WCI  -6
CAVALIER       LGT SNOW  10   7  85 SE5       30.02S WCI   2
GRAFTON        PTSUNNY   10   7  85 SE7       30.02F WCI   0
GWINNER        MOSUNNY    9   3  78 E9        29.93S WCI  -5
LANGDON        LGT SNOW   7   1  78 SE10      29.93F WCI  -8
ROLLA          LGT SNOW   7   5  92 E12       29.89F WCI  -9
WALHALLA       LGT SNOW   9   9 100 SE7       30.01F WCI  -3
$$

CITY           SKY/WX    TMP DP  RH WIND       PRES   REMARKS
ABERDEEN       CLOUDY    13   8  81 NE6       29.85F WCI   4
MOBRIDGE       CLOUDY    17  12  80 E10       29.74F WCI   5
BUFFALO          N/A     39  28  64 SW7       29.61S
RAPID CITY     PTCLDY    39  27  62 SE5       29.69F
GLASGOW        PTCLDY    18  15  88 E13       29.62F WCI   5
SIDNEY         MOCLDY    21  18  86 CALM      29.70S
WOLF POINT     CLOUDY    19  15  84 E12       29.68F WCI   7
GLENDIVE       CLOUDY    25  21  86 NE3       29.64F
MILES CITY     CLOUDY    38  32  79 S8        29.64F
BAKER          CLOUDY    41  31  67 W8        29.66F
$$

CITY           SKY/WX    TMP DP  RH WIND       PRES   REMARKS
BILLINGS       CLOUDY    46  30  53 SW10      29.67F
GREAT FALLS    CLOUDY    50  33  52 SW25G33   29.55F
REGINA         FLURRIES  12   9  85 SE22G28   29.76F WCI  -7
ESTEVAN        FLURRIES   9   3  78 E14G21    29.79F WCI  -8
$$




USA.gov is the U.S. government's official web portal to all federal, state and local government web resources and services.